BREEZE-M R/B, 40365

Orbit data source: Space-Track

BREEZE-M R/B, 40365 is space debris in HEO originally from a launch on Sat, 27 Dec 2014 UTC launched from the Tyuratam Missile And Space Complex (TTMTR). Debris objects in space refer to the collection of defunct objects orbiting the Earth. Examples of debris include non-operational satellites, rocket bodies, and fragments generated from explosions, collisions, or faulty payload assembly.

Loading next visibility...
BREEZE-M R/B details
Identifier
40365, 2014-089B
Orbit
HEO
Last TLE update18 hours ago
Origin
Flag of CISKhrunichev (CIS)
ManufacturerKhrunichev
MissionSpacecraft
Bus & MotorBRIZ, Unknown motor
Mass~1,600 kg wet, 1,600 kg dry
Launch date (UTC)
2014-12-27 (10 years ago)
Launch vehicleUnknown
Launch site
Tyuratam Missile And Space Complex (TTMTR)
Object type
Payload
Rocket body
Debris
Shape & HBRCyl, 4 m
Radar Cross Section14.451 m², Large (>1 m²)

Expand to show TLE details & history

TLE from 18 hours ago
0 BREEZE-M R/B
1 40365U 14089B   24338.65994057 -.00000069  00000-0  00000-0 0  9991
2 40365  23.3891  78.2062 6093072 163.0531 232.9685  2.19527751 79513
Epoch: 2024-12-03T15:50Z
Definitive object data (Epoch: 2024-12-03T15:50:18.865Z)
Latitude0.00005°
Longitude127.62319°
Altitude31,345.213 km
Speed2.279 km/s
True Right ascension05h 12m 40s
True Declination0° 00' 00"
Sunlit
Object was in daylight at TLE epoch
Visualization TLE readout
Latitude-14.80643°
Longitude89.91561°
Altitude29,314.075 km
Speed2.529 km/s
Apparent Right ascension02h 09m 17s
Apparent Declination-21° 18' 47"
Sunlit
Object is in daylight
Visualization observer readout
Local Sidereal Time07:51:44
Azimuth250.744° W
Elevation-10.287°
Doppler factor1
Orbital elements
Apogee altitude33,871.468 km
Perigee altitude3,393.292 km
Semi-major axis25,010.517 km
Eccentricity0.6093072
Inclination23.3891°
RAAN78.2062°
Arg. of periapsis163.0531°
True anomaly196.93974°
Mean anomaly232.9685°
Eccentric anomaly213.63264°
Mean motion0.54873 °/min
BSTARUnknown
Orbital period656.06 mins
Loading maneuver chart data...
Loading historical data...
Loading historical data...
Loading historical data...
Loading historical data...
Loading historical data...
Loading historical data...
Loading historical data...
Other satellites on launch #89 in the year 2014 (2014-12-27 UTC)

BREEZE-M R/B Visibility forecast

Observer location: undefined°, undefined

Span
Click to sort rows by Start time (UTC) header in descending order
Start Az.
Max El. time (UTC)
Max El. Az.
Max El.
End time (UTC)
End Az.
37 mins2024-12-04 16:59:22.772Z270.318° WNW2024-12-04 17:23:22.772Z213.061° SW27.264°2024-12-04 17:36:22.772Z153.399° SSE
131 mins2024-12-05 07:46:22.772Z228.02° WSW2024-12-05 09:08:22.772Z236.111° WSW11.954°2024-12-05 09:57:22.772Z241.904° WSW
|